Home > Weather > Hohhot > Past weeks

Flag for China Past Weather in Hohhot, Inner Mongolia, China — Yesterday and Last 2 Weeks

Now
68 °F

Sunny.


Feels Like: 68 °F
Forecast: 44 / 71 °F
Wind: 8 mph from East

Location: Hohhot Airport

Current Time: Aug 25, 2016 at 5:55:56 PM

Latest Report: Aug 25, 2016 at 5:00 PM


Visibility: 10 mi

Pressure: 30.15 "Hg (26.67 "Hg at 1053m altitude)

Humidity: 35%

Dew Point: 39 °F

Location of HohhotLocation

Past Weather in Hohhot — Graph

°F

Hohhot Temperature Yesterday

Maximum temperature yesterday: 81 °F (at 1:00 PM)
Minimum temperature yesterday: 64 °F (at 2:00 AM)
Average temperature yesterday: 71 °F

High & Low Weather Summary for the Past Weeks

 TemperatureHumidityPressure
High88 °F (Aug 10, 4:00 PM)100% (Aug 18, 4:00 AM)30.18 "Hg (Aug 18, 4:00 AM)
Low57 °F (Aug 14, 6:00 AM)27% (Aug 14, 2:00 PM)29.62 "Hg (Aug 18, 2:00 AM)
Average73 °F68%29.88 "Hg
* Reported Aug 10 4:00 PM — Aug 25 4:00 PM, Hohhot, Weather by CustomWeather, © 2016

Note: Actual official high and low records may vary slightly from our data, if they occured in-between our weather recording intervals... More about our weather records

Advertising

Hohhot Weather History for the Previous 24 Hours

Scroll right to see more
 ConditionsComfort  
Time TempWeatherWind HumidityBarometerVisibility
4:00 PM
Thu, Aug 25
68 °FPassing clouds.10 mph33%30.15 "HgN/A
3:00 PM68 °FPassing clouds.8 mph33%30.15 "HgN/A
2:00 PM68 °FPassing clouds.10 mph38%30.15 "HgN/A
1:00 PM68 °FPassing clouds.15 mph38%30.18 "HgN/A
12:00 PM68 °FPassing clouds.15 mph35%30.18 "HgN/A
11:00 AM66 °FPassing clouds.17 mph40%30.18 "HgN/A
10:00 AM66 °FPassing clouds.10 mph46%30.18 "HgN/A
9:00 AM64 °FScattered clouds.17 mph52%30.15 "HgN/A
8:00 AM63 °FPassing clouds.10 mph56%30.15 "HgN/A
7:00 AM63 °FScattered clouds.10 mph56%30.15 "HgN/A
6:00 AM61 °FScattered clouds.10 mph59%30.12 "HgN/A
5:00 AM63 °FPassing clouds.10 mph59%30.09 "HgN/A
4:00 AM64 °FPassing clouds.8 mph60%30.07 "HgN/A
3:00 AM64 °FPassing clouds.6 mph64%30.04 "HgN/A
2:00 AM66 °FLight rain. Passing clouds.8 mph64%30.04 "HgN/A
1:00 AM64 °FLight rain. Passing clouds.6 mph73%30.04 "HgN/A
12:00 AM64 °FPassing clouds.6 mph68%30.04 "HgN/A
11:00 PM
Wed, Aug 24
68 °FPassing clouds.15 mph56%30.04 "HgN/A
10:00 PM68 °FPassing clouds.13 mph56%30.01 "HgN/A
9:00 PM70 °FPassing clouds.13 mph57%29.98 "HgN/A
8:00 PM70 °FPassing clouds.10 mph57%29.98 "HgN/A
7:00 PM70 °FScattered clouds.13 mph57%29.95 "HgN/A
6:00 PM70 °FScattered clouds.22 mph69%29.89 "HgN/A
5:00 PM70 °FThunderstorms. Scattered clouds.13 mph88%29.86 "Hg3 mi
Weather by CustomWeather, © 2016

See weather overviewHow to use our weather pages